Location: Hillern
(53.0557°N, 9.8577°E)
Time: 17:44:36
(UTC+00:00)

Cosmos 1842 - Pass Details

Date: 19 May 2025
Orbit: 440 x 450 km, 82.5° (Epoch: 17 June)

Event Time Altitude Azimuth Distance (km) Brightness Sun altitude
Exits shadow 23:38:27 21° 247° (WSW) 1,074 4.5 -16.8°
Maximum altitude 23:39:57 29° 289° (WNW) 856 4.4 -16.8°
Drops below altitude 10° 23:43:04 10° 352° (N) 1,603 6.9 -16.7°
Sets 23:45:20 0° 4° (N) 2,482 8.5 -16.7°
